{"data":{"norad_id":67631,"intl_designator":"2026-020Q","name":"STARLINK-36527","alt_names":[],"object_type":"PAYLOAD","status":"ACTIVE","operator":null,"country":"US","launch_date":"2026-01-30","launch_site_code":"AFETR","launch_vehicle":null,"mission":null,"orbit_class":"UNKNOWN","rcs_meters":null,"size_class":null,"mass_kg":null,"dimensions":null,"purposes":["comms"],"wikipedia_slug":null,"has_3d_model":false,"image_url":null,"decayed_at":null,"tle_current":{"epoch":"2026-05-25T03:48:11.782080Z","epoch_age_seconds":72083,"freshness":"FRESH","line1":"1 67631U 26020Q   26145.15846970  .00014818  00000+0  54665-3 0  9991","line2":"2 67631  43.0024  68.3437 0001255 266.4068  93.6640 15.27595222 17808","mean_motion":15.27595222,"eccentricity":0.0001255,"inclination_deg":43.0024,"raan_deg":68.3437,"arg_perigee_deg":266.4068,"mean_anomaly_deg":93.664,"bstar":0.00054665,"rev_number":1780,"period_min":94.265809375515,"perigee_km":482.14244313927,"apogee_km":483.86458940885,"semimajor_km":6861.1405162741,"source":"CELESTRAK","updated_at":"2026-05-25T13:38:21.652176Z"}}}